Showing default

SOICAL (CONE), 4132

Orbit data source: Space-Track

SOICAL (CONE), 4132 is a payload satellite owned by NRL (US) in LEO that was launched on Tue, 30 Sep 1969 UTC via a THORAD SLV-2G AGENA D launch vehicle from the Air Force Western Test Range (AFWTR). Payload-class satellites include a variety of spacecraft equipped with specific instruments for various scientific and technological missions. These include communications satellites like Starlink; space stations such as the ISS; scientific satellites like the Hubble; Earth observation satellites from companies like Planet Labs, Umbra, and HawkEye 360; GPS; miniature CubeSats for education and research; and military/defense satellites.

Loading next visibility...
Identifier
4132, 1969-082K
Orbit
LEO
Country
Flag of USUS
Related business
Manufacturer
NRL
Mission
Spacecraft
Bus & Motor
SOICAL, Unknown motor
Mass
3 kg wet, 3 kg dry
Launch date (UTC)
1969-09-30 (57 years ago)
Launch vehicle
THORAD SLV-2G AGENA D
Launch site
Air Force Western Test Range (AFWTR)
Object type
Payload
Rocket body
Debris
Shape & HBR
Unknown
Radar Cross Section
Medium (>0.1 m² and <1 m²)

Expand to show TLE details & history
Last TLE update: 2 days ago

TLE from 2 days ago
0 SOICAL (CONE)
1  4132U 69082K   26171.43080274  .00000763  00000-0  30562-3 0  9995
2  4132  69.9927 263.9721 0007022 134.9363 225.2332 14.31991257921377
Epoch: 2026-06-20T10:20Z
TLE epoch observation values (Epoch: 2026-06-20T10:20:21.356Z)
Latitude
-0.00006°
Longitude
-159.76244°
Altitude
790.978 km
Speed
7.457 km/s
True Right ascension
17h 35m 53s
True Declination
0° 00' 00"
Sunlit
Object was in full shadow at epoch
Visualization orbit readout
Latitude
Unknown
Longitude
Unknown
Altitude
Unknown
Speed
Unknown
Apparent Right ascension
Unknown
Apparent Declination
Unknown
Sunlit
N/A
Visualization observer readout
Local Sidereal Time
07:09:51
Azimuth
Unknown
Elevation
Unknown
Doppler factor
Unknown
Orbital elements
Apogee altitude
788.121 km
Perigee altitude
778.064 km
Semi-major axis
7,161.23 km
Eccentricity
0.0007
Inclination
69.9927°
RAAN
263.9721°
Arg. of periapsis
134.9363°
True anomaly
225.17611°
Mean anomaly
225.2332°
Eccentric anomaly
225.20465°
Mean motion
3.58147 °/min
Orbital period
100.52 mins
BSTAR
0.00030562

Documentation

Showing up to 5 results
|